This is the latest recevied weather packets stored in our database for station/object SV3AQT-13. If no packets are shown the sender has not sent any weather packets the latest 10 day(s).
| Time | Temp. | Humidity | Pressure | Rain* | Wind** | Luminosity | Snow |
|---|---|---|---|---|---|---|---|
| 1788600542 | 29.44° C | 65% | 1019.9 hPa | 0 mm | 2.24 m/s, 65° | - | - |
| 1788600363 | 29.44° C | 63% | 1019.9 hPa | 0 mm | 2.24 m/s, 59° | - | - |
| 1788600182 | 30° C | 62% | 1019.9 hPa | 0 mm | 2.24 m/s, 45° | - | - |
| 1788600003 | 30.56° C | 61% | 1019.9 hPa | 0 mm | 1.34 m/s, 58° | - | - |
| 1788599822 | 30.56° C | 61% | 1019.9 hPa | 0 mm | 0.45 m/s, 80° | - | - |
| 1788599644 | 30.56° C | 61% | 1019.9 hPa | 0 mm | 0.45 m/s, 83° | - | - |
| 1788599462 | 30.56° C | 60% | 1019.9 hPa | 0 mm | 0.89 m/s, 73° | - | - |
| 1788599282 | 30.56° C | 63% | 1019.9 hPa | 0 mm | 0.45 m/s, 47° | - | - |
| 1788599103 | 30.56° C | 63% | 1019.9 hPa | 0 mm | 0.45 m/s, 62° | - | - |
| 1788598922 | 30.56° C | 60% | 1019.9 hPa | 0 mm | 1.34 m/s, 79° | - | - |
| 1788598742 | 30.56° C | 60% | 1019.9 hPa | 0 mm | 1.34 m/s, 75° | - | - |
| 1788598562 | 30.56° C | 59% | 1019.9 hPa | 0 mm | 0.89 m/s, 78° | - | - |
| 1788598382 | 30.56° C | 62% | 1019.9 hPa | 0 mm | 0.45 m/s, 75° | - | - |
| 1788598202 | 30.56° C | 62% | 1019.9 hPa | 0 mm | 0.89 m/s, 69° | - | - |
| 1788598023 | 31.11° C | 59% | 1020.3 hPa | 0 mm | 0 m/s | - | - |
| 1788597842 | 31.11° C | 60% | 1020.3 hPa | 0 mm | 0 m/s | - | - |
| 1788597662 | 31.11° C | 61% | 1020.3 hPa | 0 mm | 0 m/s | - | - |
| 1788597304 | 30° C | 60% | 1020.3 hPa | 0 mm | 0 m/s | - | - |
| 1788597122 | 29.44° C | 60% | 1020.3 hPa | 0 mm | 0 m/s | - | - |
| 1788596943 | 29.44° C | 64% | 1020.3 hPa | 0 mm | 0 m/s | - | - |
| 1788596764 | 30° C | 63% | 1020.3 hPa | 0 mm | 0.45 m/s, 75° | - | - |
| 1788596582 | 29.44° C | 64% | 1019.9 hPa | 0 mm | 0.89 m/s, 80° | - | - |
| 1788596402 | 29.44° C | 64% | 1019.9 hPa | 0 mm | 0.89 m/s, 67° | - | - |
| 1788596222 | 29.44° C | 65% | 1019.9 hPa | 0 mm | 0.45 m/s, 71° | - | - |
| 1788596043 | 29.44° C | 65% | 1019.9 hPa | 0 mm | 0.89 m/s, 78° | - | - |
* Rain latest hour (hover to see other rain measurements)
** Current wind speed in m/s (hover to see current wind gust speed)